Time,TemperatureF,DewpointF,PressureIn,WindDirection,WindDirectionDegrees,WindSpeedMPH,WindSpeedGustMPH,Humidity,HourlyPrecipIn,Conditions,Clouds,dailyrainin,SoftwareType,DateUTC
2013-05-24 00:01:00,64.9,64.9,29.78,SSW,200,2.0,7.0,100,0.00,,,0.00,WeatherCatV1.15B25,2013-05-24 04:01:00,
2013-05-24 00:06:00,64.8,64.8,29.79,SSW,206,4.0,6.0,100,0.00,,,0.00,WeatherCatV1.15B25,2013-05-24 04:06:00,
2013-05-24 00:11:00,64.8,64.8,29.77,SSW,203,3.0,7.0,100,0.00,,,0.00,WeatherCatV1.15B25,2013-05-24 04:11:00,
2013-05-24 00:16:00,64.8,64.8,29.79,SSW,203,4.0,5.0,100,0.00,,,0.00,WeatherCatV1.15B25,2013-05-24 04:16:00,
2013-05-24 00:21:00,64.8,64.8,29.78,SSW,213,3.0,12.0,100,0.00,,,0.00,WeatherCatV1.15B25,2013-05-24 04:21:00,
2013-05-24 00:26:00,64.6,64.6,29.79,SW,218,4.0,10.0,100,0.00,,,0.00,WeatherCatV1.15B25,2013-05-24 04:26:00,
2013-05-24 00:31:00,64.6,64.6,29.78,SW,217,5.0,9.0,100,0.00,,,0.00,WeatherCatV1.15B25,2013-05-24 04:31:00,
2013-05-24 00:36:00,64.6,64.6,29.78,SSW,212,4.0,8.0,100,0.75,,,0.01,WeatherCatV1.15B25,2013-05-24 04:36:00,
2013-05-24 00:41:00,64.6,64.6,29.78,SSW,212,7.0,7.0,100,0.05,,,0.00,WeatherCatV1.15B25,2013-05-24 04:41:00,
2013-05-24 00:46:00,64.6,64.6,29.77,SSW,212,4.0,6.0,100,0.01,,,0.00,WeatherCatV1.15B25,2013-05-24 04:46:00,
2013-05-24 00:51:00,64.6,64.6,29.77,SSW,208,0.0,6.0,100,0.09,,,0.00,WeatherCatV1.15B25,2013-05-24 04:51:00,
2013-05-24 00:56:00,64.4,64.4,29.77,SSW,208,1.0,1.0,100,0.01,,,0.00,WeatherCatV1.15B25,2013-05-24 04:56:00,
2013-05-24 01:01:00,64.5,64.5,29.77,SSW,208,0.0,3.0,100,0.02,,,0.11,WeatherCatV1.15B25,2013-05-24 05:01:00,
2013-05-24 01:06:00,64.4,64.4,29.77,SSW,208,0.0,0.0,100,0.00,,,0.12,WeatherCatV1.15B25,2013-05-24 05:06:00,
2013-05-24 01:11:00,64.4,64.4,29.76,SSW,208,0.0,0.0,100,0.02,,,0.14,WeatherCatV1.15B25,2013-05-24 05:11:00,
2013-05-24 01:16:00,64.5,64.5,29.76,SSW,211,0.0,0.0,100,0.19,,,0.16,WeatherCatV1.15B25,2013-05-24 05:16:00,
2013-05-24 01:21:00,64.5,64.5,29.76,SSW,211,0.0,0.0,100,0.00,,,0.16,WeatherCatV1.15B25,2013-05-24 05:21:00,
2013-05-24 01:26:00,64.5,64.5,29.76,SSW,211,0.0,0.0,100,0.00,,,0.17,WeatherCatV1.15B25,2013-05-24 05:26:00,
2013-05-24 01:31:00,64.4,64.4,29.75,SSW,211,0.0,0.0,100,0.04,,,0.22,WeatherCatV1.15B25,2013-05-24 05:31:00,
2013-05-24 01:36:00,64.4,64.4,29.74,SSW,211,0.0,0.0,100,0.00,,,0.23,WeatherCatV1.15B25,2013-05-24 05:36:00,
2013-05-24 01:41:00,64.5,64.5,29.76,SSW,211,0.0,0.0,100,0.00,,,0.24,WeatherCatV1.15B25,2013-05-24 05:41:00,
2013-05-24 01:46:00,64.5,64.5,29.75,SSW,211,0.0,0.0,100,0.00,,,0.24,WeatherCatV1.15B25,2013-05-24 05:46:00,
2013-05-24 01:51:00,64.5,64.5,29.75,SSW,211,0.0,0.0,100,0.14,,,0.26,WeatherCatV1.15B25,2013-05-24 05:51:00,
2013-05-24 01:56:00,64.4,64.4,29.75,SSW,211,0.0,0.0,100,0.00,,,0.26,WeatherCatV1.15B25,2013-05-24 05:56:00,
2013-05-24 02:01:00,64.5,64.5,29.75,SSW,207,0.0,0.0,100,0.10,,,0.28,WeatherCatV1.15B25,2013-05-24 06:01:00,
2013-05-24 02:06:00,64.5,64.5,29.75,SSW,207,0.0,0.0,100,0.38,,,0.32,WeatherCatV1.15B25,2013-05-24 06:06:00,
2013-05-24 02:11:00,64.5,64.5,29.75,SSW,210,0.0,0.0,100,0.25,,,0.35,WeatherCatV1.15B25,2013-05-24 06:11:00,
2013-05-24 02:16:00,64.3,64.3,29.74,SSW,209,0.0,0.0,100,0.75,,,0.39,WeatherCatV1.15B25,2013-05-24 06:16:00,
2013-05-24 02:21:00,64.3,64.3,29.74,SSW,212,0.0,0.0,100,0.45,,,0.44,WeatherCatV1.15B25,2013-05-24 06:21:00,
2013-05-24 02:26:00,64.3,64.3,29.74,SW,215,0.0,0.0,100,0.76,,,0.49,WeatherCatV1.15B25,2013-05-24 06:26:00,
2013-05-24 02:31:00,64.1,64.1,29.73,SW,215,0.0,0.0,100,0.06,,,0.51,WeatherCatV1.15B25,2013-05-24 06:31:00,
2013-05-24 02:36:00,64.1,64.1,29.74,SW,214,0.0,0.0,100,0.00,,,0.52,WeatherCatV1.15B25,2013-05-24 06:36:00,
2013-05-24 02:41:00,64.1,64.1,29.73,SW,214,0.0,0.0,100,0.00,,,0.53,WeatherCatV1.15B25,2013-05-24 06:41:00,
2013-05-24 02:46:00,64.2,64.2,29.73,SW,214,0.0,0.0,100,0.00,,,0.53,WeatherCatV1.15B25,2013-05-24 06:46:00,
2013-05-24 02:51:00,64.0,64.0,29.72,SW,214,0.0,0.0,100,0.00,,,0.53,WeatherCatV1.15B25,2013-05-24 06:51:00,
2013-05-24 02:56:00,64.0,64.0,29.72,SW,214,0.0,0.0,100,0.00,,,0.54,WeatherCatV1.15B25,2013-05-24 06:56:00,
2013-05-24 03:01:00,64.0,64.0,29.72,SW,214,0.0,0.0,100,0.00,,,0.55,WeatherCatV1.15B25,2013-05-24 07:01:00,
2013-05-24 03:06:00,64.0,64.0,29.71,SW,214,0.0,0.0,100,0.00,,,0.55,WeatherCatV1.15B25,2013-05-24 07:06:00,
2013-05-24 03:11:00,63.8,63.8,29.71,SW,214,0.0,0.0,100,0.00,,,0.56,WeatherCatV1.15B25,2013-05-24 07:11:00,
2013-05-24 03:16:00,63.8,63.8,29.70,SW,214,0.0,0.0,100,0.91,,,0.62,WeatherCatV1.15B25,2013-05-24 07:16:00,
2013-05-24 03:21:00,63.8,63.8,29.71,SW,214,0.0,0.0,100,0.01,,,0.64,WeatherCatV1.15B25,2013-05-24 07:21:00,
2013-05-24 03:26:00,63.8,63.8,29.71,SW,214,0.0,0.0,100,0.56,,,0.70,WeatherCatV1.15B25,2013-05-24 07:26:00,
2013-05-24 03:31:00,63.8,63.8,29.70,SW,215,0.0,0.0,100,0.32,,,0.73,WeatherCatV1.15B25,2013-05-24 07:31:00,
2013-05-24 03:36:00,63.8,63.8,29.70,SW,217,0.0,0.0,100,0.50,,,0.76,WeatherCatV1.15B25,2013-05-24 07:36:00,
2013-05-24 03:41:00,63.8,63.8,29.69,SW,217,0.0,0.0,100,0.14,,,0.79,WeatherCatV1.15B25,2013-05-24 07:41:00,
2013-05-24 03:46:00,63.7,63.7,29.70,SW,217,0.0,0.0,100,0.22,,,0.82,WeatherCatV1.15B25,2013-05-24 07:46:00,
2013-05-24 03:51:00,63.8,63.8,29.69,SW,217,0.0,0.0,100,0.05,,,0.84,WeatherCatV1.15B25,2013-05-24 07:51:00,
2013-05-24 03:56:00,63.8,63.8,29.70,SW,217,0.0,0.0,100,0.28,,,0.86,WeatherCatV1.15B25,2013-05-24 07:56:00,
2013-05-24 04:01:00,63.8,63.8,29.70,SW,217,0.0,0.0,100,0.14,,,0.87,WeatherCatV1.15B25,2013-05-24 08:01:00,
2013-05-24 04:06:00,63.8,63.8,29.70,SW,217,0.0,0.0,100,0.45,,,0.90,WeatherCatV1.15B25,2013-05-24 08:06:00,
2013-05-24 04:11:00,63.6,63.6,29.68,SW,217,0.0,0.0,100,0.20,,,0.92,WeatherCatV1.15B25,2013-05-24 08:11:00,
2013-05-24 04:16:00,63.6,63.6,29.68,SW,217,0.0,0.0,100,0.23,,,0.94,WeatherCatV1.15B25,2013-05-24 08:16:00,
2013-05-24 04:21:00,63.6,63.6,29.68,SW,217,0.0,0.0,100,0.00,,,0.94,WeatherCatV1.15B25,2013-05-24 08:21:00,
2013-05-24 04:26:00,63.7,63.7,29.68,SW,217,0.0,0.0,100,0.00,,,0.94,WeatherCatV1.15B25,2013-05-24 08:26:00,
2013-05-24 04:31:00,63.6,63.6,29.67,SW,217,0.0,0.0,100,0.00,,,0.95,WeatherCatV1.15B25,2013-05-24 08:31:00,
2013-05-24 04:36:00,63.6,63.6,29.68,SW,217,0.0,0.0,100,0.13,,,0.97,WeatherCatV1.15B25,2013-05-24 08:36:00,
2013-05-24 04:41:00,63.6,63.6,29.68,SW,217,0.0,0.0,100,0.10,,,0.98,WeatherCatV1.15B25,2013-05-24 08:41:00,
2013-05-24 04:46:00,63.6,63.6,29.67,SW,217,0.0,0.0,100,0.10,,,0.99,WeatherCatV1.15B25,2013-05-24 08:46:00,
2013-05-24 04:51:00,63.6,63.6,29.66,SW,217,0.0,0.0,100,0.00,,,0.99,WeatherCatV1.15B25,2013-05-24 08:51:00,
2013-05-24 04:56:00,63.5,63.5,29.66,SW,217,0.0,0.0,100,0.00,,,1.00,WeatherCatV1.15B25,2013-05-24 08:56:00,
2013-05-24 05:01:00,63.5,63.5,29.67,SW,217,0.0,0.0,100,0.00,,,1.00,WeatherCatV1.15B25,2013-05-24 09:01:00,
2013-05-24 05:06:00,63.4,63.4,29.66,SW,217,0.0,0.0,100,0.00,,,1.00,WeatherCatV1.15B25,2013-05-24 09:06:00,
2013-05-24 05:11:00,63.5,63.5,29.66,SW,217,0.0,0.0,100,0.00,,,1.00,WeatherCatV1.15B25,2013-05-24 09:11:00,
2013-05-24 05:16:00,63.4,63.4,29.67,SW,217,0.0,0.0,100,0.00,,,1.00,WeatherCatV1.15B25,2013-05-24 09:16:00,
2013-05-24 05:17:00,63.5,63.5,29.66,SW,217,0.0,0.0,100,0.00,,,1.00,WeatherCatV1.15B25,2013-05-24 09:17:00,
2013-05-24 05:22:00,63.5,63.5,29.65,SW,217,0.0,0.0,100,0.00,,,1.00,WeatherCatV1.15B25,2013-05-24 09:22:00,
2013-05-24 05:27:00,63.5,63.5,29.67,SW,217,0.0,0.0,100,0.00,,,1.00,WeatherCatV1.15B25,2013-05-24 09:27:00,
2013-05-24 05:32:00,63.5,63.5,29.66,SW,217,0.0,0.0,100,0.00,,,1.00,WeatherCatV1.15B25,2013-05-24 09:32:00,
2013-05-24 05:37:00,63.5,63.5,29.66,SW,217,0.0,0.0,100,0.00,,,1.00,WeatherCatV1.15B25,2013-05-24 09:37:00,
2013-05-24 05:42:00,63.5,63.5,29.66,SW,217,0.0,0.0,100,0.00,,,1.00,WeatherCatV1.15B25,2013-05-24 09:42:00,
2013-05-24 05:47:00,63.5,63.5,29.66,SW,217,0.0,0.0,100,0.00,,,1.00,WeatherCatV1.15B25,2013-05-24 09:47:00,
2013-05-24 05:52:00,63.5,63.5,29.66,SW,217,0.0,0.0,100,0.00,,,1.00,WeatherCatV1.15B25,2013-05-24 09:52:00,
2013-05-24 05:57:00,63.5,63.5,29.65,SW,217,0.0,0.0,100,0.00,,,1.00,WeatherCatV1.15B25,2013-05-24 09:57:00,
2013-05-24 06:02:00,63.5,63.5,29.66,SW,217,0.0,0.0,100,0.00,,,1.00,WeatherCatV1.15B25,2013-05-24 10:02:00,
2013-05-24 06:07:00,63.5,63.5,29.66,SW,217,0.0,0.0,100,0.00,,,1.00,WeatherCatV1.15B25,2013-05-24 10:07:00,
2013-05-24 06:12:00,63.4,63.4,29.66,SW,217,0.0,0.0,100,0.00,,,1.00,WeatherCatV1.15B25,2013-05-24 10:12:00,
2013-05-24 06:17:00,63.5,63.5,29.65,SW,217,0.0,0.0,100,0.00,,,1.00,WeatherCatV1.15B25,2013-05-24 10:17:00,
2013-05-24 06:22:00,63.6,63.6,29.66,SW,217,0.0,0.0,100,0.00,,,1.00,WeatherCatV1.15B25,2013-05-24 10:22:00,
2013-05-24 06:27:00,63.6,63.6,29.66,SW,217,0.0,0.0,100,0.00,,,1.00,WeatherCatV1.15B25,2013-05-24 10:27:00,
2013-05-24 06:32:00,63.6,63.6,29.65,SW,217,0.0,0.0,100,0.00,,,1.00,WeatherCatV1.15B25,2013-05-24 10:32:00,
2013-05-24 06:37:00,63.6,63.6,29.64,SW,217,0.0,0.0,100,0.00,,,1.00,WeatherCatV1.15B25,2013-05-24 10:37:00,
2013-05-24 06:42:00,63.7,63.7,29.64,SW,217,0.0,0.0,100,0.00,,,1.00,WeatherCatV1.15B25,2013-05-24 10:42:00,
2013-05-24 06:47:00,64.1,64.1,29.65,SW,217,0.0,0.0,100,0.00,,,1.00,WeatherCatV1.15B25,2013-05-24 10:47:00,
2013-05-24 06:52:00,64.3,64.3,29.65,SW,217,0.0,0.0,100,0.00,,,1.00,WeatherCatV1.15B25,2013-05-24 10:52:00,
2013-05-24 06:53:00,64.5,64.5,29.65,SW,217,0.0,0.0,100,0.00,,,1.00,WeatherCatV1.15B25,2013-05-24 10:53:00,
2013-05-24 06:58:00,64.6,64.6,29.65,SW,217,0.0,0.0,100,0.00,,,1.00,WeatherCatV1.15B25,2013-05-24 10:58:00,
2013-05-24 07:03:00,64.6,64.6,29.64,SW,217,0.0,0.0,100,0.00,,,1.00,WeatherCatV1.15B25,2013-05-24 11:03:00,
2013-05-24 07:08:00,64.6,64.6,29.63,SW,217,0.0,0.0,100,0.00,,,1.00,WeatherCatV1.15B25,2013-05-24 11:08:00,
2013-05-24 07:13:00,64.6,64.6,29.64,SW,217,0.0,0.0,100,0.00,,,1.00,WeatherCatV1.15B25,2013-05-24 11:13:00,
2013-05-24 07:18:00,64.5,64.5,29.65,SW,217,0.0,0.0,100,0.00,,,1.00,WeatherCatV1.15B25,2013-05-24 11:18:00,
2013-05-24 07:23:00,64.6,64.6,29.66,SW,217,0.0,0.0,100,0.00,,,1.00,WeatherCatV1.15B25,2013-05-24 11:23:00,
2013-05-24 07:28:00,64.6,64.6,29.66,SW,217,0.0,0.0,100,0.00,,,1.00,WeatherCatV1.15B25,2013-05-24 11:28:00,
2013-05-24 07:33:00,64.6,64.6,29.67,SW,217,0.0,0.0,100,0.00,,,1.00,WeatherCatV1.15B25,2013-05-24 11:33:00,
2013-05-24 07:38:00,64.7,64.7,29.66,SW,217,0.0,0.0,100,0.00,,,1.00,WeatherCatV1.15B25,2013-05-24 11:38:00,
2013-05-24 07:43:00,64.9,64.9,29.67,SW,217,0.0,0.0,100,0.00,,,1.00,WeatherCatV1.15B25,2013-05-24 11:43:00,
2013-05-24 07:48:00,64.9,64.9,29.67,SW,217,0.0,0.0,100,0.00,,,1.00,WeatherCatV1.15B25,2013-05-24 11:48:00,
2013-05-24 07:53:00,65.1,65.1,29.68,SW,217,0.0,0.0,100,0.00,,,1.00,WeatherCatV1.15B25,2013-05-24 11:53:00,
2013-05-24 07:58:00,65.1,65.1,29.67,SW,217,0.0,0.0,100,0.00,,,1.00,WeatherCatV1.15B25,2013-05-24 11:58:00,
2013-05-24 08:03:00,65.1,65.1,29.68,SW,217,0.0,0.0,100,0.00,,,1.00,WeatherCatV1.15B25,2013-05-24 12:03:00,
2013-05-24 08:08:00,65.1,65.1,29.68,SW,217,0.0,0.0,100,0.00,,,1.00,WeatherCatV1.15B25,2013-05-24 12:08:00,
2013-05-24 08:13:00,65.2,65.2,29.69,SW,217,0.0,0.0,100,0.00,,,1.00,WeatherCatV1.15B25,2013-05-24 12:13:00,
2013-05-24 08:18:00,65.4,65.4,29.68,SW,217,0.0,0.0,100,0.00,,,1.00,WeatherCatV1.15B25,2013-05-24 12:18:00,
2013-05-24 08:23:00,65.2,65.2,29.70,SW,217,0.0,0.0,100,0.00,,,1.00,WeatherCatV1.15B25,2013-05-24 12:23:00,
2013-05-24 08:28:00,65.3,65.3,29.69,SW,217,0.0,0.0,100,0.00,,,1.00,WeatherCatV1.15B25,2013-05-24 12:28:00,
2013-05-24 08:33:00,65.2,65.2,29.70,SW,217,0.0,0.0,100,0.00,,,1.00,WeatherCatV1.15B25,2013-05-24 12:33:00,
2013-05-24 08:38:00,65.3,65.3,29.70,SW,217,0.0,0.0,100,0.00,,,1.00,WeatherCatV1.15B25,2013-05-24 12:38:00,
2013-05-24 08:43:00,65.4,65.4,29.70,SW,217,0.0,0.0,100,0.00,,,1.00,WeatherCatV1.15B25,2013-05-24 12:43:00,
2013-05-24 08:48:00,65.6,65.6,29.70,SW,217,0.0,0.0,100,0.00,,,1.00,WeatherCatV1.15B25,2013-05-24 12:48:00,
2013-05-24 08:53:00,65.7,65.7,29.71,SW,217,0.0,0.0,100,0.00,,,1.00,WeatherCatV1.15B25,2013-05-24 12:53:00,
2013-05-24 08:58:00,65.7,65.7,29.70,SW,217,0.0,0.0,100,0.00,,,1.01,WeatherCatV1.15B25,2013-05-24 12:58:00,
2013-05-24 09:03:00,65.9,65.9,29.68,SW,217,0.0,0.0,100,0.00,,,1.01,WeatherCatV1.15B25,2013-05-24 13:03:00,
2013-05-24 09:08:00,66.0,66.0,29.71,SW,217,0.0,0.0,100,0.00,,,1.01,WeatherCatV1.15B25,2013-05-24 13:08:00,
2013-05-24 09:13:00,66.0,66.0,29.70,SW,217,0.0,0.0,100,0.00,,,1.01,WeatherCatV1.15B25,2013-05-24 13:13:00,
2013-05-24 09:19:00,66.0,66.0,29.70,SW,217,0.0,0.0,100,0.00,,,1.01,WeatherCatV1.15B25,2013-05-24 13:19:00,
2013-05-24 09:24:00,66.0,66.0,29.70,SW,217,0.0,0.0,100,0.00,,,1.01,WeatherCatV1.15B25,2013-05-24 13:24:00,
2013-05-24 09:29:00,66.1,66.1,29.71,SW,217,0.0,0.0,100,0.00,,,1.01,WeatherCatV1.15B25,2013-05-24 13:29:00,
2013-05-24 09:34:00,66.0,66.0,29.71,SW,217,0.0,0.0,100,0.00,,,1.01,WeatherCatV1.15B25,2013-05-24 13:34:00,
2013-05-24 09:39:00,66.2,66.2,29.70,SW,217,0.0,0.0,100,0.00,,,1.01,WeatherCatV1.15B25,2013-05-24 13:39:00,
2013-05-24 09:44:00,66.4,66.4,29.70,SW,217,0.0,0.0,100,0.00,,,1.01,WeatherCatV1.15B25,2013-05-24 13:44:00,
2013-05-24 09:49:00,66.7,66.7,29.70,SW,217,0.0,0.0,100,0.00,,,1.01,WeatherCatV1.15B25,2013-05-24 13:49:00,
2013-05-24 09:54:00,66.7,66.7,29.70,SW,217,2.0,3.0,100,0.00,,,1.01,WeatherCatV1.15B25,2013-05-24 13:54:00,
2013-05-24 09:59:00,66.8,66.8,29.69,SW,217,0.0,2.0,100,0.00,,,1.01,WeatherCatV1.15B25,2013-05-24 13:59:00,
2013-05-24 10:04:00,66.7,66.7,29.70,SW,217,2.0,4.0,100,0.00,,,1.01,WeatherCatV1.15B25,2013-05-24 14:04:00,
2013-05-24 10:09:00,66.8,66.8,29.71,SW,217,0.0,0.0,100,0.00,,,1.01,WeatherCatV1.15B25,2013-05-24 14:09:00,
2013-05-24 10:14:00,67.1,67.1,29.71,SW,217,0.0,2.0,100,0.00,,,1.01,WeatherCatV1.15B25,2013-05-24 14:14:00,
2013-05-24 10:19:00,67.4,67.4,29.71,SW,217,0.0,1.0,100,0.00,,,1.01,WeatherCatV1.15B25,2013-05-24 14:19:00,
2013-05-24 10:24:00,67.6,67.6,29.71,SW,217,1.0,1.0,100,0.00,,,1.01,WeatherCatV1.15B25,2013-05-24 14:24:00,
2013-05-24 10:29:00,67.5,67.5,29.71,SW,217,1.0,3.0,100,0.00,,,1.01,WeatherCatV1.15B25,2013-05-24 14:29:00,
2013-05-24 10:34:00,67.5,67.5,29.71,SW,217,0.0,1.0,100,0.00,,,1.01,WeatherCatV1.15B25,2013-05-24 14:34:00,
2013-05-24 10:39:00,67.7,67.7,29.71,SW,217,2.0,5.0,100,0.00,,,1.01,WeatherCatV1.15B25,2013-05-24 14:39:00,
2013-05-24 10:44:00,67.5,67.5,29.71,SW,217,0.0,0.0,100,0.00,,,1.01,WeatherCatV1.15B25,2013-05-24 14:44:00,
2013-05-24 10:49:00,67.5,67.5,29.71,SW,217,1.0,2.0,100,0.00,,,1.01,WeatherCatV1.15B25,2013-05-24 14:49:00,
2013-05-24 10:54:00,68.0,68.0,29.71,SW,217,0.0,2.0,100,0.00,,,1.01,WeatherCatV1.15B25,2013-05-24 14:54:00,
2013-05-24 10:59:00,68.4,68.4,29.71,SW,217,3.0,4.0,100,0.00,,,1.01,WeatherCatV1.15B25,2013-05-24 14:59:00,
2013-05-24 11:04:00,68.5,68.5,29.71,SW,217,5.0,5.0,100,0.00,,,1.01,WeatherCatV1.15B25,2013-05-24 15:04:00,
2013-05-24 11:09:00,68.7,68.7,29.72,SW,217,0.0,3.0,100,0.00,,,1.01,WeatherCatV1.15B25,2013-05-24 15:09:00,
2013-05-24 11:14:00,69.0,69.0,29.72,SW,217,3.0,6.0,100,0.00,,,1.01,WeatherCatV1.15B25,2013-05-24 15:14:00,
2013-05-24 11:19:00,69.3,69.3,29.72,SW,217,0.0,5.0,100,0.00,,,1.01,WeatherCatV1.15B25,2013-05-24 15:19:00,
2013-05-24 11:24:00,69.7,69.7,29.72,SW,217,0.0,1.0,100,0.00,,,1.01,WeatherCatV1.15B25,2013-05-24 15:24:00,
2013-05-24 11:29:00,70.0,69.7,29.72,SW,217,1.0,3.0,99,0.00,,,1.01,WeatherCatV1.15B25,2013-05-24 15:29:00,
2013-05-24 11:34:00,70.2,69.6,29.71,SW,217,0.0,2.0,98,0.00,,,1.01,WeatherCatV1.15B25,2013-05-24 15:34:00,
2013-05-24 11:39:00,70.3,69.1,29.72,SW,217,2.0,3.0,96,0.00,,,1.01,WeatherCatV1.15B25,2013-05-24 15:39:00,
2013-05-24 11:44:00,70.5,69.3,29.72,SW,217,0.0,3.0,96,0.00,,,1.01,WeatherCatV1.15B25,2013-05-24 15:44:00,
2013-05-24 11:49:00,70.5,69.0,29.71,SW,217,0.0,0.0,95,0.00,,,1.01,WeatherCatV1.15B25,2013-05-24 15:49:00,
2013-05-24 11:54:00,70.7,69.2,29.71,SW,217,0.0,3.0,95,0.00,,,1.01,WeatherCatV1.15B25,2013-05-24 15:54:00,
2013-05-24 11:59:00,70.8,69.0,29.71,SW,217,1.0,3.0,94,0.00,,,1.01,WeatherCatV1.15B25,2013-05-24 15:59:00,
2013-05-24 12:04:00,71.0,69.2,29.71,SW,217,2.0,3.0,94,0.00,,,1.01,WeatherCatV1.15B25,2013-05-24 16:04:00,
2013-05-24 12:09:00,71.2,68.8,29.71,SW,217,2.0,4.0,92,0.00,,,1.01,WeatherCatV1.15B25,2013-05-24 16:09:00,
2013-05-24 12:14:00,71.4,68.3,29.71,SW,217,0.0,4.0,90,0.00,,,1.01,WeatherCatV1.15B25,2013-05-24 16:14:00,
2013-05-24 12:19:00,71.7,68.3,29.72,SW,217,2.0,4.0,89,0.00,,,1.01,WeatherCatV1.15B25,2013-05-24 16:19:00,
2013-05-24 12:24:00,71.7,68.3,29.71,SW,217,1.0,2.0,89,0.00,,,1.01,WeatherCatV1.15B25,2013-05-24 16:24:00,
2013-05-24 12:29:00,71.7,68.3,29.71,SW,217,0.0,1.0,89,0.00,,,1.01,WeatherCatV1.15B25,2013-05-24 16:29:00,
2013-05-24 12:34:00,71.8,69.0,29.71,SW,217,3.0,4.0,91,0.00,,,1.01,WeatherCatV1.15B25,2013-05-24 16:34:00,
2013-05-24 12:39:00,71.8,68.0,29.72,SW,217,0.0,2.0,88,0.00,,,1.01,WeatherCatV1.15B25,2013-05-24 16:39:00,
2013-05-24 12:40:00,71.8,68.4,29.71,SW,217,1.0,2.0,89,0.00,,,1.01,WeatherCatV1.15B25,2013-05-24 16:40:00,
2013-05-24 12:45:00,72.0,68.2,29.70,SW,217,1.0,1.0,88,0.00,,,1.01,WeatherCatV1.15B25,2013-05-24 16:45:00,
2013-05-24 12:50:00,72.1,68.3,29.71,SW,217,1.0,3.0,88,0.00,,,1.01,WeatherCatV1.15B25,2013-05-24 16:50:00,
2013-05-24 12:55:00,72.4,68.3,29.71,SW,217,0.0,3.0,87,0.00,,,1.01,WeatherCatV1.15B25,2013-05-24 16:55:00,
2013-05-24 13:00:00,72.7,68.6,29.70,SW,227,4.0,4.0,87,0.00,,,1.01,WeatherCatV1.15B25,2013-05-24 17:00:00,
2013-05-24 13:05:00,73.1,67.6,29.70,SW,223,3.0,3.0,83,0.00,,,1.01,WeatherCatV1.15B25,2013-05-24 17:05:00,
2013-05-24 13:10:00,73.0,68.2,29.70,SW,226,3.0,6.0,85,0.00,,,1.01,WeatherCatV1.15B25,2013-05-24 17:10:00,
2013-05-24 13:15:00,72.7,66.9,29.71,SW,219,1.0,6.0,82,0.00,,,1.01,WeatherCatV1.15B25,2013-05-24 17:15:00,
2013-05-24 13:20:00,72.4,67.6,29.70,SW,218,2.0,3.0,85,0.00,,,1.01,WeatherCatV1.15B25,2013-05-24 17:20:00,
2013-05-24 13:25:00,72.4,68.0,29.70,SW,218,1.0,2.0,86,0.00,,,1.01,WeatherCatV1.15B25,2013-05-24 17:25:00,
2013-05-24 13:30:00,72.5,67.7,29.70,SW,218,1.0,3.0,85,0.00,,,1.01,WeatherCatV1.15B25,2013-05-24 17:30:00,
2013-05-24 13:35:00,72.9,67.4,29.71,SW,217,2.0,4.0,83,0.00,,,1.01,WeatherCatV1.15B25,2013-05-24 17:35:00,
2013-05-24 13:40:00,73.2,67.7,29.72,SW,217,1.0,2.0,83,0.00,,,1.01,WeatherCatV1.15B25,2013-05-24 17:40:00,
2013-05-24 13:45:00,73.2,67.4,29.70,SW,217,2.0,5.0,82,0.00,,,1.01,WeatherCatV1.15B25,2013-05-24 17:45:00,
2013-05-24 13:50:00,71.3,65.2,29.72,NNE,20,4.0,10.0,81,0.00,,,1.01,WeatherCatV1.15B25,2013-05-24 17:50:00,
2013-05-24 13:55:00,68.7,63.3,29.72,NNE,19,3.0,8.0,83,0.00,,,1.01,WeatherCatV1.15B25,2013-05-24 17:55:00,
2013-05-24 14:00:00,66.8,62.5,29.72,NW,322,4.0,4.0,86,0.00,,,1.01,WeatherCatV1.15B25,2013-05-24 18:00:00,
2013-05-24 14:05:00,66.0,63.0,29.72,WNW,297,1.0,2.0,90,0.00,,,1.01,WeatherCatV1.15B25,2013-05-24 18:05:00,
2013-05-24 14:10:00,65.5,62.8,29.72,NE,49,0.0,2.0,91,0.00,,,1.01,WeatherCatV1.15B25,2013-05-24 18:10:00,
2013-05-24 14:15:00,65.4,62.7,29.73,NE,43,4.0,4.0,91,0.00,,,1.01,WeatherCatV1.15B25,2013-05-24 18:15:00,
2013-05-24 14:20:00,64.9,62.5,29.73,NW,320,0.0,5.0,92,0.00,,,1.01,WeatherCatV1.15B25,2013-05-24 18:20:00,
2013-05-24 14:25:00,64.8,62.4,29.73,NW,320,3.0,4.0,92,0.00,,,1.01,WeatherCatV1.15B25,2013-05-24 18:25:00,
2013-05-24 14:30:00,64.1,62.0,29.73,NW,325,0.0,4.0,93,0.00,,,1.01,WeatherCatV1.15B25,2013-05-24 18:30:00,
2013-05-24 14:35:00,63.6,61.8,29.73,NNE,30,1.0,2.0,94,0.00,,,1.01,WeatherCatV1.15B25,2013-05-24 18:35:00,
2013-05-24 14:40:00,63.6,62.1,29.73,NW,322,0.0,2.0,95,0.00,,,1.01,WeatherCatV1.15B25,2013-05-24 18:40:00,
2013-05-24 14:45:00,63.6,62.1,29.73,NNW,348,0.0,6.0,95,0.00,,,1.01,WeatherCatV1.15B25,2013-05-24 18:45:00,
2013-05-24 14:50:00,64.0,62.5,29.74,NNE,23,0.0,1.0,95,0.00,,,1.01,WeatherCatV1.15B25,2013-05-24 18:50:00,
2013-05-24 14:55:00,64.1,62.6,29.73,ENE,58,3.0,5.0,95,0.00,,,1.01,WeatherCatV1.15B25,2013-05-24 18:55:00,
2013-05-24 15:00:00,64.3,62.5,29.73,WNW,295,1.0,5.0,94,0.00,,,1.01,WeatherCatV1.15B25,2013-05-24 19:00:00,
2013-05-24 15:05:00,64.3,62.8,29.74,North,359,1.0,5.0,95,0.00,,,1.01,WeatherCatV1.15B25,2013-05-24 19:05:00,
2013-05-24 15:10:00,64.0,62.8,29.73,NNE,12,2.0,8.0,96,0.00,,,1.01,WeatherCatV1.15B25,2013-05-24 19:10:00,
2013-05-24 15:15:00,63.5,62.3,29.74,NE,51,4.0,8.0,96,0.00,,,1.01,WeatherCatV1.15B25,2013-05-24 19:15:00,
2013-05-24 15:20:00,63.0,61.8,29.73,East,100,1.0,6.0,96,0.00,,,1.01,WeatherCatV1.15B25,2013-05-24 19:20:00,
2013-05-24 15:25:00,63.0,61.8,29.73,North,359,1.0,8.0,96,0.00,,,1.01,WeatherCatV1.15B25,2013-05-24 19:25:00,
2013-05-24 15:30:00,63.1,61.6,29.72,ENE,59,2.0,7.0,95,0.00,,,1.01,WeatherCatV1.15B25,2013-05-24 19:30:00,
2013-05-24 15:35:00,63.3,61.5,29.72,North,350,4.0,6.0,94,0.00,,,1.01,WeatherCatV1.15B25,2013-05-24 19:35:00,
2013-05-24 15:40:00,63.3,61.8,29.73,ESE,106,7.0,8.0,95,0.00,,,1.01,WeatherCatV1.15B25,2013-05-24 19:40:00,
2013-05-24 15:45:00,63.3,60.9,29.73,NE,52,6.0,13.0,92,0.00,,,1.01,WeatherCatV1.15B25,2013-05-24 19:45:00,
2013-05-24 15:50:00,63.1,60.1,29.73,NNW,336,5.0,10.0,90,0.00,,,1.01,WeatherCatV1.15B25,2013-05-24 19:50:00,
2013-05-24 15:55:00,63.1,59.8,29.73,NE,41,7.0,8.0,89,0.00,,,1.01,WeatherCatV1.15B25,2013-05-24 19:55:00,
2013-05-24 16:00:00,62.9,59.3,29.73,North,11,1.0,6.0,88,0.00,,,1.01,WeatherCatV1.15B25,2013-05-24 20:00:00,
2013-05-24 16:02:00,63.0,59.7,29.73,NE,35,4.0,7.0,89,0.00,,,1.01,WeatherCatV1.15B25,2013-05-24 20:02:00,
2013-05-24 16:07:00,63.0,59.1,29.74,North,351,1.0,3.0,87,0.00,,,1.01,WeatherCatV1.15B25,2013-05-24 20:07:00,
2013-05-24 16:12:00,63.1,58.8,29.73,North,8,1.0,14.0,86,0.00,,,1.01,WeatherCatV1.15B25,2013-05-24 20:12:00,
2013-05-24 16:17:00,63.5,59.2,29.74,NNW,338,4.0,7.0,86,0.00,,,1.01,WeatherCatV1.15B25,2013-05-24 20:17:00,
2013-05-24 16:22:00,63.5,58.6,29.74,NNW,348,4.0,8.0,84,0.00,,,1.01,WeatherCatV1.15B25,2013-05-24 20:22:00,
2013-05-24 16:27:00,63.1,58.2,29.73,NNW,342,3.0,7.0,84,0.00,,,1.01,WeatherCatV1.15B25,2013-05-24 20:27:00,
2013-05-24 16:32:00,62.9,58.3,29.74,SE,144,2.0,5.0,85,0.00,,,1.01,WeatherCatV1.15B25,2013-05-24 20:32:00,
2013-05-24 16:37:00,63.0,58.4,29.74,NNW,328,2.0,5.0,85,0.00,,,1.01,WeatherCatV1.15B25,2013-05-24 20:37:00,
2013-05-24 16:42:00,62.8,57.2,29.75,North,7,3.0,10.0,82,0.00,,,1.01,WeatherCatV1.15B25,2013-05-24 20:42:00,
2013-05-24 16:47:00,62.8,57.6,29.74,NNW,346,2.0,9.0,83,0.00,,,1.01,WeatherCatV1.15B25,2013-05-24 20:47:00,
2013-05-24 16:52:00,62.7,57.5,29.74,West,267,5.0,11.0,83,0.00,,,1.01,WeatherCatV1.15B25,2013-05-24 20:52:00,
2013-05-24 16:57:00,62.5,57.3,29.74,SSE,156,3.0,9.0,83,0.00,,,1.01,WeatherCatV1.15B25,2013-05-24 20:57:00,
2013-05-24 17:02:00,62.4,57.5,29.74,WSW,246,7.0,8.0,84,0.00,,,1.01,WeatherCatV1.15B25,2013-05-24 21:02:00,
2013-05-24 17:07:00,62.0,56.1,29.75,ESE,121,4.0,6.0,81,0.00,,,1.01,WeatherCatV1.15B25,2013-05-24 21:07:00,
2013-05-24 17:12:00,61.7,55.5,29.75,NNW,333,3.0,8.0,80,0.00,,,1.01,WeatherCatV1.15B25,2013-05-24 21:12:00,
2013-05-24 17:17:00,61.3,55.4,29.75,West,272,1.0,7.0,81,0.00,,,1.01,WeatherCatV1.15B25,2013-05-24 21:17:00,
2013-05-24 17:22:00,61.1,55.2,29.75,North,0,3.0,5.0,81,0.00,,,1.01,WeatherCatV1.15B25,2013-05-24 21:22:00,
2013-05-24 17:27:00,61.0,55.5,29.76,NNW,348,2.0,4.0,82,0.00,,,1.01,WeatherCatV1.15B25,2013-05-24 21:27:00,
2013-05-24 17:32:00,60.4,53.9,29.76,ESE,114,3.0,10.0,79,0.00,,,1.01,WeatherCatV1.15B25,2013-05-24 21:32:00,
2013-05-24 17:37:00,60.0,53.8,29.76,West,279,4.0,6.0,80,0.00,,,1.01,WeatherCatV1.15B25,2013-05-24 21:37:00,
2013-05-24 17:42:00,59.5,53.7,29.74,NW,321,2.0,4.0,81,0.00,,,1.01,WeatherCatV1.15B25,2013-05-24 21:42:00,
2013-05-24 17:47:00,59.5,54.0,29.76,WNW,302,2.0,2.0,82,0.00,,,1.01,WeatherCatV1.15B25,2013-05-24 21:47:00,
2013-05-24 17:52:00,59.4,53.6,29.76,NNW,345,1.0,5.0,81,0.00,,,1.01,WeatherCatV1.15B25,2013-05-24 21:52:00,
2013-05-24 17:57:00,58.9,53.1,29.76,North,3,5.0,12.0,81,0.00,,,1.01,WeatherCatV1.15B25,2013-05-24 21:57:00,
2013-05-24 18:02:00,58.5,52.3,29.77,NNE,13,2.0,6.0,80,0.00,,,1.01,WeatherCatV1.15B25,2013-05-24 22:02:00,
2013-05-24 18:07:00,58.3,52.5,29.77,West,261,1.0,5.0,81,0.00,,,1.01,WeatherCatV1.15B25,2013-05-24 22:07:00,
2013-05-24 18:12:00,57.7,51.6,29.77,SE,125,1.0,12.0,80,0.00,,,1.01,WeatherCatV1.15B25,2013-05-24 22:12:00,
2013-05-24 18:16:00,57.6,52.5,29.77,NNE,25,4.0,6.0,83,0.00,,,1.01,WeatherCatV1.15B25,2013-05-24 22:16:00,
2013-05-24 18:21:00,57.3,52.2,29.77,North,0,2.0,3.0,83,0.00,,,1.01,WeatherCatV1.15B25,2013-05-24 22:21:00,
2013-05-24 18:26:00,57.1,52.0,29.77,NNW,329,2.0,9.0,83,0.00,,,1.01,WeatherCatV1.15B25,2013-05-24 22:26:00,
2013-05-24 18:31:00,56.8,51.7,29.78,NE,48,3.0,6.0,83,0.00,,,1.01,WeatherCatV1.15B25,2013-05-24 22:31:00,
2013-05-24 18:36:00,56.4,51.3,29.78,North,5,6.0,10.0,83,0.00,,,1.01,WeatherCatV1.15B25,2013-05-24 22:36:00,
2013-05-24 18:41:00,56.1,51.3,29.77,North,358,2.0,6.0,84,0.00,,,1.01,WeatherCatV1.15B25,2013-05-24 22:41:00,
2013-05-24 18:46:00,56.1,51.7,29.77,NNW,329,2.0,4.0,85,0.00,,,1.01,WeatherCatV1.15B25,2013-05-24 22:46:00,
2013-05-24 18:51:00,56.1,51.7,29.79,SSW,197,1.0,5.0,85,0.00,,,1.01,WeatherCatV1.15B25,2013-05-24 22:51:00,
2013-05-24 18:56:00,55.9,51.8,29.79,East,88,2.0,2.0,86,0.00,,,1.01,WeatherCatV1.15B25,2013-05-24 22:56:00,
2013-05-24 19:01:00,55.8,51.4,29.79,North,358,3.0,3.0,85,0.00,,,1.01,WeatherCatV1.15B25,2013-05-24 23:01:00,
2013-05-24 19:06:00,55.3,51.2,29.79,NW,320,1.0,3.0,86,0.00,,,1.01,WeatherCatV1.15B25,2013-05-24 23:06:00,
2013-05-24 19:11:00,55.0,50.9,29.79,East,91,2.0,8.0,86,0.00,,,1.01,WeatherCatV1.15B25,2013-05-24 23:11:00,
2013-05-24 19:16:00,54.6,50.5,29.80,NW,322,3.0,4.0,86,0.00,,,1.01,WeatherCatV1.15B25,2013-05-24 23:16:00,
2013-05-24 19:21:00,54.5,50.1,29.79,WNW,300,2.0,5.0,85,0.00,,,1.01,WeatherCatV1.15B25,2013-05-24 23:21:00,
2013-05-24 19:26:00,54.2,49.5,29.80,NNW,340,6.0,8.0,84,0.00,,,1.01,WeatherCatV1.15B25,2013-05-24 23:26:00,
2013-05-24 19:31:00,53.9,49.5,29.81,NE,37,7.0,7.0,85,0.00,,,1.01,WeatherCatV1.15B25,2013-05-24 23:31:00,
2013-05-24 19:36:00,53.7,49.3,29.81,North,1,0.0,8.0,85,0.00,,,1.01,WeatherCatV1.15B25,2013-05-24 23:36:00,
2013-05-24 19:41:00,53.4,49.3,29.81,NE,49,2.0,3.0,86,0.00,,,1.01,WeatherCatV1.15B25,2013-05-24 23:41:00,
2013-05-24 19:46:00,52.9,49.4,29.80,NE,39,3.0,6.0,88,0.00,,,1.01,WeatherCatV1.15B25,2013-05-24 23:46:00,
2013-05-24 19:51:00,52.6,49.5,29.81,NE,45,2.0,2.0,89,0.00,,,1.01,WeatherCatV1.15B25,2013-05-24 23:51:00,
2013-05-24 19:56:00,52.3,49.8,29.81,NE,49,0.0,0.0,91,0.00,,,1.02,WeatherCatV1.15B25,2013-05-24 23:56:00,
2013-05-24 20:01:00,52.3,49.8,29.81,NE,49,0.0,0.0,91,0.00,,,1.02,WeatherCatV1.15B25,2013-05-25 00:01:00,
2013-05-24 20:06:00,51.4,48.9,29.82,NW,314,0.0,0.0,91,0.00,,,1.02,WeatherCatV1.15B25,2013-05-25 00:06:00,
2013-05-24 20:11:00,51.3,48.8,29.82,North,2,0.0,2.0,91,0.00,,,1.02,WeatherCatV1.15B25,2013-05-25 00:11:00,
2013-05-24 20:16:00,50.8,49.1,29.82,North,3,0.0,2.0,94,0.00,,,1.03,WeatherCatV1.15B25,2013-05-25 00:16:00,
2013-05-24 20:21:00,50.8,49.4,29.83,North,3,0.0,0.0,95,0.00,,,1.03,WeatherCatV1.15B25,2013-05-25 00:21:00,
2013-05-24 20:26:00,50.7,49.6,29.83,North,2,0.0,3.0,96,0.00,,,1.04,WeatherCatV1.15B25,2013-05-25 00:26:00,
2013-05-24 20:31:00,50.5,49.7,29.83,North,7,0.0,0.0,97,0.00,,,1.04,WeatherCatV1.15B25,2013-05-25 00:31:00,
2013-05-24 20:36:00,50.1,49.3,29.83,North,8,3.0,5.0,97,0.05,,,1.05,WeatherCatV1.15B25,2013-05-25 00:36:00,
2013-05-24 20:41:00,49.8,49.0,29.83,NNE,30,0.0,0.0,97,0.00,,,1.05,WeatherCatV1.15B25,2013-05-25 00:41:00,
2013-05-24 20:46:00,49.8,49.0,29.83,North,6,0.0,0.0,97,0.00,,,1.05,WeatherCatV1.15B25,2013-05-25 00:46:00,
2013-05-24 20:51:00,49.8,49.5,29.83,NNW,328,3.0,4.0,99,0.00,,,1.07,WeatherCatV1.15B25,2013-05-25 00:51:00,
2013-05-24 20:56:00,49.8,49.5,29.83,North,359,0.0,0.0,99,0.00,,,1.08,WeatherCatV1.15B25,2013-05-25 00:56:00,
2013-05-24 21:01:00,49.8,49.5,29.83,North,0,0.0,0.0,99,0.00,,,1.08,WeatherCatV1.15B25,2013-05-25 01:01:00,
2013-05-24 21:06:00,49.8,49.5,29.83,North,0,0.0,0.0,99,0.00,,,1.08,WeatherCatV1.15B25,2013-05-25 01:06:00,
2013-05-24 21:11:00,48.8,48.8,29.83,NNW,334,0.0,4.0,100,0.00,,,1.08,WeatherCatV1.15B25,2013-05-25 01:11:00,
2013-05-24 21:16:00,48.8,48.8,29.83,NNE,14,0.0,0.0,100,0.00,,,1.08,WeatherCatV1.15B25,2013-05-25 01:16:00,
2013-05-24 21:21:00,48.7,48.4,29.83,NE,44,0.0,6.0,99,0.00,,,1.08,WeatherCatV1.15B25,2013-05-25 01:21:00,
2013-05-24 21:26:00,48.8,48.8,29.83,North,11,0.0,0.0,100,0.00,,,1.08,WeatherCatV1.15B25,2013-05-25 01:26:00,
2013-05-24 21:31:00,48.8,48.8,29.84,North,10,0.0,0.0,100,0.00,,,1.08,WeatherCatV1.15B25,2013-05-25 01:31:00,
2013-05-24 21:36:00,48.7,48.7,29.83,North,10,3.0,4.0,100,0.00,,,1.09,WeatherCatV1.15B25,2013-05-25 01:36:00,
2013-05-24 21:41:00,48.4,48.4,29.83,NE,35,0.0,4.0,100,0.03,,,1.10,WeatherCatV1.15B25,2013-05-25 01:41:00,
2013-05-24 21:46:00,48.4,48.4,29.83,NW,315,0.0,3.0,100,0.00,,,1.10,WeatherCatV1.15B25,2013-05-25 01:46:00,
2013-05-24 21:51:00,48.3,48.3,29.84,North,0,1.0,4.0,100,0.00,,,1.10,WeatherCatV1.15B25,2013-05-25 01:51:00,
2013-05-24 21:56:00,48.3,48.3,29.84,North,359,0.0,3.0,100,0.04,,,1.11,WeatherCatV1.15B25,2013-05-25 01:56:00,
2013-05-24 22:01:00,48.4,48.4,29.84,West,268,0.0,3.0,100,0.00,,,1.11,WeatherCatV1.15B25,2013-05-25 02:01:00,
2013-05-24 22:02:00,48.3,48.3,29.85,West,268,0.0,0.0,100,0.00,,,1.11,WeatherCatV1.15B25,2013-05-25 02:02:00,
2013-05-24 22:07:00,48.3,48.3,29.83,North,358,0.0,0.0,100,0.00,,,1.11,WeatherCatV1.15B25,2013-05-25 02:07:00,
2013-05-24 22:12:00,48.3,48.3,29.84,North,0,0.0,5.0,100,0.00,,,1.11,WeatherCatV1.15B25,2013-05-25 02:12:00,
2013-05-24 22:17:00,48.1,48.1,29.83,North,0,0.0,0.0,100,0.00,,,1.11,WeatherCatV1.15B25,2013-05-25 02:17:00,
2013-05-24 22:22:00,48.1,48.1,29.84,North,359,0.0,0.0,100,0.00,,,1.11,WeatherCatV1.15B25,2013-05-25 02:22:00,
2013-05-24 22:27:00,48.0,48.0,29.84,North,0,0.0,0.0,100,0.00,,,1.11,WeatherCatV1.15B25,2013-05-25 02:27:00,
2013-05-24 22:32:00,48.0,48.0,29.88,NE,45,0.0,0.0,100,0.00,,,1.11,WeatherCatV1.15B25,2013-05-25 02:32:00,
2013-05-24 22:37:00,48.0,48.0,29.84,NE,45,0.0,0.0,100,0.00,,,1.11,WeatherCatV1.15B25,2013-05-25 02:37:00,
2013-05-24 22:42:00,48.0,48.0,29.84,NE,45,0.0,0.0,100,0.00,,,1.11,WeatherCatV1.15B25,2013-05-25 02:42:00,
2013-05-24 22:47:00,48.0,48.0,29.84,NE,45,0.0,0.0,100,0.00,,,1.11,WeatherCatV1.15B25,2013-05-25 02:47:00,
2013-05-24 22:52:00,48.0,48.0,29.82,NE,45,0.0,0.0,100,0.00,,,1.11,WeatherCatV1.15B25,2013-05-25 02:52:00,
2013-05-24 22:57:00,48.1,48.1,29.85,North,0,0.0,0.0,100,0.00,,,1.13,WeatherCatV1.15B25,2013-05-25 02:57:00,
2013-05-24 23:02:00,48.0,48.0,29.84,North,0,0.0,0.0,100,0.00,,,1.13,WeatherCatV1.15B25,2013-05-25 03:02:00,
2013-05-24 23:07:00,48.1,48.1,29.84,North,359,0.0,0.0,100,0.00,,,1.13,WeatherCatV1.15B25,2013-05-25 03:07:00,
2013-05-24 23:12:00,48.0,48.0,29.84,North,0,0.0,0.0,100,0.00,,,1.13,WeatherCatV1.15B25,2013-05-25 03:12:00,
2013-05-24 23:17:00,47.6,47.6,29.84,NNE,12,0.0,0.0,100,0.00,,,1.13,WeatherCatV1.15B25,2013-05-25 03:17:00,
2013-05-24 23:22:00,47.6,47.3,29.85,NNE,12,0.0,0.0,99,0.00,,,1.13,WeatherCatV1.15B25,2013-05-25 03:22:00,
2013-05-24 23:27:00,47.6,47.6,29.84,NNE,12,0.0,0.0,100,0.00,,,1.13,WeatherCatV1.15B25,2013-05-25 03:27:00,
2013-05-24 23:32:00,47.6,47.6,29.84,NNE,12,0.0,0.0,100,0.00,,,1.13,WeatherCatV1.15B25,2013-05-25 03:32:00,
2013-05-24 23:37:00,47.6,47.6,29.84,NNE,12,0.0,0.0,100,0.00,,,1.13,WeatherCatV1.15B25,2013-05-25 03:37:00,
2013-05-24 23:42:00,47.6,47.6,29.85,NNE,12,0.0,0.0,100,0.00,,,1.13,WeatherCatV1.15B25,2013-05-25 03:42:00,
2013-05-24 23:47:00,-999.0,32.0,29.84,North,359,0.0,0.0,50,0.00,,,1.13,WeatherCatV1.15B25,2013-05-25 03:47:00,
2013-05-24 23:52:00,-999.0,32.0,29.84,North,0,0.0,0.0,50,0.00,,,1.13,WeatherCatV1.15B25,2013-05-25 03:52:00,
2013-05-24 23:57:00,-999.0,32.0,29.83,North,0,0.0,0.0,50,0.00,,,1.13,WeatherCatV1.15B25,2013-05-25 03:57:00,